Location: Fort Worth, Tx
(32.7431°N, 97.3695°W)
Time: 02:52:33
(UTC-04:00)

Vanguard 3 - Pass Details

Date: 01 March 2024
Orbit: 510 x 3234 km, 33.3° (Epoch: 24 April)

Event Time Altitude Azimuth Distance (km) Brightness Sun altitude
Rises 22:35:56 0° 267° (W) 6,661 12.6 -39.9°
Reaches altitude 10° 22:40:01 10° 268° (W) 5,855 12.1 -40.7°
Maximum altitude 22:59:46 88° 359° (N) 3,196 9.8 -44.5°
Enters shadow 23:01:44 79° 80° (E) 3,201 9.7 -44.9°
